Location: Monbadon
(44.9333°N, 0.0500°W)
Time: 13:33:57
(UTC+00:00)

Daily predictions for brighter satellites

Satellite Brightness Start Highest point End
(mag) Time Altitude Azimuth Time Altitude Azimuth Time Altitude Azimuth
Cosmos 1269 Rocket 4.4 18:48:09 10° S 18:53:07 43° ESE 18:58:06 10° NNE
CZ-4C R/B 4.5 18:50:23 10° WNW 18:54:39 22° NNW 18:59:31 10° NNE
STARLINK-1199 3.3 18:52:44 10° WSW 18:55:50 65° NNW 18:58:58 10° NE
SL-08 ROCKET BODY 4.5 18:49:51 10° N 18:55:58 65° E 19:01:56 10° SSE
STARLINK-1191 3.3 18:53:11 10° WSW 18:56:17 64° NNW 18:59:25 10° NE
STARLINK-1210 3.3 18:53:39 10° WSW 18:56:45 64° NNW 18:59:52 10° NE
STARLINK-1221 3.3 18:54:05 10° WSW 18:57:12 63° NNW 19:00:20 10° NE
STARLINK-1219 3.3 18:54:33 10° WSW 18:57:39 62° NNW 19:00:47 10° NE
STARLINK-1222 3.4 18:55:00 10° WSW 18:58:06 62° NNW 19:01:14 10° NE
STARLINK-1118 3.6 18:56:07 10° WNW 18:58:06 30° SW 19:00:05 10° SSE
STARLINK-1211 3.4 18:55:28 10° WSW 18:58:33 61° NNW 19:01:41 10° NE
YAOGAN 1 3.6 18:54:47 10° S 18:58:59 51° W 19:03:14 10° NNW
ISS -2.1 18:56:05 10° NW 18:59:00 26° N 19:01:52 10° ENE
STARLINK-1214 3.4 18:55:55 10° WSW 18:59:00 61° NNW 19:02:07 10° NE
STARLINK-1245 3.4 18:56:23 10° WSW 18:59:27 60° NNW 19:02:34 10° NE
STARLINK-1238 3.4 18:56:47 10° WSW 18:59:52 60° NNW 19:03:00 10° NE
STARLINK-1269 3.5 18:56:09 10° SW 19:00:12 78° SE 19:04:17 10° ENE
STARLINK-1205 3.4 18:57:42 10° WSW 19:00:47 59° NNW 19:03:52 10° NE
Cosmos 1455 Rocket 3.2 18:56:55 10° S 19:01:08 53° E 19:05:23 10° NNE
STARLINK-1094 3.7 18:57:12 10° NW 19:01:14 66° NNE 19:05:16 10° ESE
STARLINK-1204 3.4 18:58:11 10° WSW 19:01:15 58° NNW 19:04:21 10° NE
Cosmos 371 Rocket 4.1 18:57:05 10° NNW 19:01:49 55° WSW 19:06:31 10° S
Cosmos 2297 4.0 18:56:18 10° NNW 19:01:50 51° ENE 19:07:22 10° SE
S3M 4.1 18:58:37 10° S 19:04:59 82° E 19:11:25 10° N
STARLINK-1200 3.5 19:00:56 10° SW 19:05:01 84° SE 19:09:07 10° ENE
Cosmos 2237 Rocket 2.6 18:59:52 10° SW 19:05:28 69° WNW 19:11:07 10° NNE
STARLINK-1117 3.6 19:02:03 10° NW 19:06:06 71° NNE 19:10:00 11° ESE
Cosmos 1386 Rocket 4.4 19:00:58 10° N 19:07:04 80° E 19:13:04 10° S
Cosmos 1892 Rocket 3.6 19:04:41 10° N 19:09:11 89° W 19:13:40 10° S
Cosmos 1805 3.5 19:05:26 10° SSW 19:09:20 74° W 19:13:15 10° N
STARLINK-1192 3.6 19:05:41 10° SW 19:09:46 90° SSE 19:13:52 10° ENE
CZ-2C R/B 4.0 19:06:32 10° NE 19:09:47 17° E 19:13:00 10° SE
Cosmos 1626 Rocket 4.3 19:05:54 10° N 19:09:53 32° ENE 19:13:49 10° SE
STARLINK-1078 3.6 19:06:29 10° NW 19:10:33 76° NNE 19:14:17 12° ESE
BREEZE-M DEB (TANK) 3.9 18:59:01 10° WNW 19:12:11 61° SW 19:15:35 10° SE
Cosmos 2278 Rocket 3.5 19:07:29 10° NW 19:12:49 43° WSW 19:18:07 10° S
Meteor 2-5 Rocket 3.9 19:07:54 10° NNW 19:13:34 76° W 19:19:06 10° S
STARLINK-1244 3.6 19:10:36 10° WSW 19:14:41 84° NW 19:18:48 10° ENE
STARLINK-1108 3.5 19:11:21 10° NW 19:15:25 81° NNE 19:18:58 13° ESE
ARGOS 3.3 19:10:17 10° SE 19:15:31 53° ENE 19:20:46 10° N
Cosmos 1602 Rocket 4.4 19:13:54 10° N 19:17:54 31° ENE 19:21:45 10° SE
STARLINK-1138 3.7 19:15:12 10° WSW 19:19:18 79° NNW 19:23:24 10° NE
STARLINK-1071 3.5 19:16:00 10° WNW 19:20:04 87° NNE 19:23:26 15° ESE
STARLINK-1234 4.4 19:17:40 10° W 19:20:24 33° NNW 19:23:08 10° NE
Okean 1-7 Rocket 3.7 19:16:49 10° NNW 19:21:13 78° W 19:25:35 10° S
Cosmos 494 Rocket 4.2 19:16:17 10° SSW 19:21:26 78° WNW 19:26:39 10° NNE
USA 186 1.9 19:19:21 10° SSE 19:22:44 59° ENE 19:26:05 10° N
STARLINK-1143 3.8 19:20:07 10° WSW 19:24:11 74° NNW 19:28:18 10° NE
STARLINK-1110 3.5 19:20:27 10° WNW 19:24:32 88° SW 19:27:43 16° SE
Meteor 1-24 Rocket 3.7 19:19:17 10° NNW 19:24:50 82° W 19:30:11 10° S
STARLINK-1124 3.6 19:21:50 10° WNW 19:25:59 86° SW 19:29:13 16° SE
CZ-2C R/B 2.9 19:22:52 10° SSE 19:27:54 70° ENE 19:32:44 10° N
Cosmos 1544 Rocket 3.5 19:24:19 10° S 19:28:41 79° E 19:33:08 10° N
Cosmos 1331 Rocket 4.3 19:25:11 10° NNW 19:30:19 68° WSW 19:35:25 10° S
Cosmos 1470 2.9 19:27:01 10° S 19:30:44 49° E 19:34:32 10° NNE
STARLINK-1241 3.9 19:28:30 10° WSW 19:32:32 65° NNW 19:36:35 10° NE
STARLINK-1113 4.5 19:29:08 10° NW 19:33:03 39° NNE 19:35:47 17° E
STARLINK-1122 3.6 19:29:54 10° WNW 19:33:58 76° SW 19:36:48 19° SE
Cosmos 883 Rocket 4.5 19:27:49 10° S 19:34:00 83° E 19:40:19 10° N
CZ-4 R/B 4.4 19:32:03 10° SW 19:34:20 15° W 19:36:37 10° NW
SPOT 3 Rocket 3.9 19:29:48 10° SE 19:34:42 48° ENE 19:39:42 10° N
MOS 1 4.3 19:30:55 10° SSE 19:36:34 84° ENE 19:42:15 10° NNW
STARLINK-1239 4.0 19:33:27 10° WSW 19:37:27 61° NNW 19:41:29 10° NE
STARLINK-1119 4.4 19:34:06 10° NW 19:38:03 41° NNE 19:40:34 20° E
STARLINK-1126 3.7 19:34:53 10° WNW 19:38:56 70° SW 19:41:36 21° SE
Cosmos 2369 Rocket 3.0 19:34:55 10° NNW 19:40:07 35° NE 19:43:14 20° ESE
SJ-6B 2.8 19:36:46 10° SSE 19:40:48 75° ENE 19:44:56 10° N
H-2A R/B 4.3 19:32:20 10° WSW 19:41:15 17° SW 19:44:57 10° S
Cosmos 1733 4.4 19:38:04 10° SSW 19:41:42 45° WNW 19:45:21 10° N
STARLINK-1240 4.1 19:38:12 10° WSW 19:42:12 57° NNW 19:46:13 10° NE
Cosmos 1726 3.5 19:42:56 21° E 19:42:56 21° E 19:45:31 10° NE
STARLINK-1114 4.3 19:39:07 10° NW 19:43:06 43° NNE 19:45:24 22° E
STARLINK-1082 3.8 19:39:23 10° WNW 19:43:25 65° SW 19:45:55 22° SE
Ariane Rocket 3.5 19:38:50 10° S 19:43:51 62° WSW 19:48:54 10° NNW
Cosmos 1758 3.3 19:40:39 10° S 19:44:42 67° E 19:48:47 10° NNE
Aureole 2 Rocket 3.7 19:42:28 10° N 19:45:24 24° ENE 19:45:56 23° ENE
Cosmos 1758 Rocket 4.5 19:42:55 10° NNE 19:46:44 29° ENE 19:47:53 25° E
STARLINK-1216 4.2 19:42:58 10° WSW 19:46:57 54° NNW 19:50:57 10° NE
NOSS 3-3 (A) 4.5 19:42:13 10° S 19:47:15 32° ESE 19:52:48 10° NE
NOSS 3-3 (C) 4.5 19:42:20 10° S 19:47:22 32° ESE 19:52:53 10° NE
STARLINK-1130 (DARKSAT) 4.2 19:44:05 10° NW 19:48:05 45° NNE 19:50:10 25° E
STARLINK-1100 3.9 19:44:19 10° WNW 19:48:20 60° SW 19:50:39 24° SE
CZ-2C R/B 3.8 19:45:27 10° NNE 19:50:11 60° ESE 19:54:48 10° S
STARLINK-1237 4.3 19:47:47 10° WSW 19:51:45 51° NNW 19:55:38 11° NE
STARLINK-1083 4.0 19:49:05 10° WNW 19:53:04 55° SW 19:55:12 25° SSE
STARLINK-1084 4.2 19:49:02 10° NW 19:53:04 48° NNE 19:54:56 27° E
Cosmos 2184 Rocket 4.3 19:49:53 10° N 19:55:58 46° ENE 19:59:37 23° SE
IRIDIUM 106 4.4 19:51:05 10° N 19:56:15 57° E 20:00:12 17° SSE
STARLINK-1202 4.4 19:52:34 10° W 19:56:30 48° NNW 20:00:12 12° NE
STARLINK-1125 4.1 19:53:38 10° WNW 19:57:36 51° SW 19:59:33 26° SSE
SL-14 R/B 4.3 19:53:55 10° NNW 19:57:49 48° W 20:01:41 10° SSW
STARLINK-1098 4.1 19:54:01 10° NW 19:58:05 51° NNE 19:59:43 31° E
Cosmos 1943 Rocket 2.2 19:56:13 10° NNW 20:01:43 62° ENE 20:04:35 28° SE
STARLINK-1109 4.3 19:58:28 10° WNW 20:02:23 47° SW 20:04:12 27° SSE
Meteor 1-21 Rocket 4.1 19:56:57 10° N 20:02:30 65° ENE 20:06:08 22° SSE
Cosmos 1943 3.9 20:01:04 26° SE 20:02:42 30° ESE 20:07:35 10° NE
STARLINK-1123 4.0 19:59:00 10° NW 20:03:04 54° NNE 20:04:30 35° E
Meteor 2-10 4.3 20:00:44 14° SSE 20:05:05 48° E 20:10:22 10° NNE
SL-8 R/B 4.0 20:00:32 10° WNW 20:05:16 59° N 20:07:34 29° ENE
STARLINK-1091 4.4 20:03:19 10° WNW 20:07:12 43° SW 20:08:50 28° S
Resurs 1-3 3.5 20:05:32 28° SSE 20:07:48 74° ENE 20:12:12 10° N
STARLINK-1097 3.9 20:03:57 10° NW 20:08:03 57° NNE 20:09:16 40° E
Cosmos 1626 3.8 20:06:00 10° NNW 20:09:22 33° W 20:12:43 10° SSW
ATLAS 2AS CENTAUR R/B 3.9 20:03:40 10° NNW 20:10:35 33° NNE 20:14:22 21° E
Cosmos 2315 Rocket 4.5 20:06:36 10° SSW 20:12:50 65° W 20:19:11 10° N
STARLINK-1099 3.8 20:08:56 10° NW 20:13:03 61° NNE 20:14:04 45° E
H-2A R/B 3.3 20:09:31 10° SSW 20:14:31 41° W 20:19:26 10° NNW
Aureole 3 3.6 20:12:37 10° S 20:16:34 84° W 20:21:41 10° N
SL-08 RB Rocket 4.2 20:12:30 12° S 20:16:38 57° W 20:21:09 10° NNW
Cosmos 2154 Rocket 4.4 20:11:01 10° N 20:17:03 43° ENE 20:18:59 34° ESE
USA 234 3.2 20:10:33 10° NE 20:17:08 88° SSE 20:23:41 10° SW
Resurs 01 Rocket 1.6 20:16:28 43° SE 20:17:43 65° ENE 20:22:06 10° N
Meteor 2-15 Rocket 4.5 20:11:48 10° SSW 20:17:52 80° W 20:23:59 10° N
STARLINK-1104 3.7 20:13:55 10° NW 20:18:03 65° NNE 20:18:51 51° E
DMSP B5D2-2 3.9 20:14:29 10° NNE 20:19:44 80° ESE 20:24:57 10° S
SL-16 R/B 3.2 20:14:36 10° SW 20:20:04 48° WNW 20:25:33 10° NNE
Abrixas rocket 3.1 20:18:48 10° WSW 20:20:46 37° SW 20:20:46 37° SW
Cosmos 2228 3.7 20:22:39 37° ENE 20:22:39 37° ENE 20:25:55 10° NNE
STARLINK-1144 3.6 20:18:54 10° NW 20:23:02 70° NNE 20:23:38 59° E
Cosmos 1953 2.3 20:23:07 21° SSW 20:25:44 77° W 20:29:43 10° N
STARLINK-1103 3.5 20:23:52 10° NW 20:28:01 75° NNE 20:28:25 68° E
Cosmos 1992 Rocket 3.9 20:26:18 10° NNW 20:31:32 87° ENE 20:33:07 46° SSE
Nadezhda 1 Rocket 4.1 20:29:47 33° SSE 20:32:38 58° E 20:38:52 10° NNE
STARLINK-1101 3.4 20:28:50 10° NW 20:33:00 80° NNE 20:33:11 77° ENE
ISS -2.9 20:32:55 10° NW 20:35:39 49° NNW 20:35:39 49° NNW
STARLINK-1102 3.5 20:33:48 10° WNW 20:37:58 86° NNE 20:37:58 86° NNE
MetOp-B 4.1 20:40:10 55° SE 20:41:11 69° ENE 20:46:31 10° N
Cosmos 1603 3.5 20:36:06 10° SSW 20:41:44 78° ESE 20:47:22 10° NNE
Cosmos 2251 Rocket 3.6 20:37:19 10° SSW 20:42:41 77° WNW 20:48:06 10° NNE
STARLINK-1111 3.6 20:38:48 10° WNW 20:42:45 81° WNW 20:42:45 81° WNW
SPOT 5 4.4 20:44:26 20° NE 20:44:26 20° NE 20:46:36 10° NNE
Meteor 1-16 Rocket 4.0 20:40:19 28° S 20:43:12 87° E 20:48:41 10° NNE
Cosmos 2084 Rocket 3.5 20:38:44 10° NW 20:43:12 72° SW 20:43:30 69° SSW
Cosmos 1703 3.8 20:40:45 10° N 20:43:49 50° NNE 20:43:49 50° NNE
STARLINK-1073 3.7 20:43:47 10° WNW 20:47:33 71° W 20:47:33 71° W
ERS-1 Rocket 3.9 20:48:38 34° NE 20:48:38 34° NE 20:52:33 10° N
Landsat 7 4.3 20:49:39 47° NE 20:49:39 47° NE 20:53:43 10° N
Cosmos 2074 Rocket 4.2 20:43:20 10° NNW 20:49:35 71° W 20:53:01 28° S
CZ-2C R/B 2.8 20:45:26 10° N 20:50:34 66° WNW 20:55:39 10° SSW
STARLINK-1121 4.0 20:48:45 10° WNW 20:52:19 62° W 20:52:19 62° W
Cosmos 292 Rocket 4.4 20:51:28 10° NNW 20:56:06 50° WSW 20:57:04 42° SW
STARLINK-1106 4.2 20:53:43 10° WNW 20:57:04 54° W 20:57:04 54° W
Cosmos 1656 Rocket 3.6 20:56:15 10° NNW 21:01:56 68° ENE 21:02:03 68° ENE
MOS 1 Rocket 4.4 20:57:41 10° N 21:02:43 50° WNW 21:07:55 10° SW
STARLINK-1112 4.5 20:58:44 10° WNW 21:01:53 47° W 21:01:53 47° W
Aureole 1 Rocket 4.3 21:01:50 51° SSE 21:03:23 60° ESE 21:10:01 10° NNE
Cosmos 1610 Rocket 4.4 20:57:41 10° N 21:03:57 83° W 21:05:25 55° S
Meteor 1-11 4.1 20:58:17 10° N 21:04:06 82° E 21:04:29 76° SE
Cosmos 1726 Rocket 4.2 21:10:43 52° NNW 21:10:43 52° NNW 21:14:15 10° N
COSMOS 2455 3.8 21:09:39 10° NNW 21:15:04 33° NE 21:15:09 33° NE
Cosmos 1726 4.2 21:17:22 25° W 21:17:41 26° WNW 21:20:53 10° NNW
Cosmos 2341 Rocket 3.9 21:16:26 10° N 21:22:43 76° ENE 21:22:43 76° ENE
Cosmos 2369 Rocket 3.1 21:18:55 10° NW 21:24:12 40° WSW 21:25:03 38° SW
NOSS 3-4 (A) 3.8 21:22:38 10° NW 21:29:35 68° NE 21:30:09 65° ENE
NOSS 3-4 (C) 3.8 21:22:44 10° NW 21:29:41 67° NE 21:30:14 65° ENE
Terra 3.3 21:32:46 30° NNE 21:32:46 30° NNE 21:35:23 10° N
Spot 2 Rocket 4.3 21:35:52 45° W 21:35:52 45° W 21:40:37 10° NNW
SPOT 1/Viking Rocket 4.2 21:41:28 54° NW 21:41:28 54° NW 21:45:44 10° NNW
Cosmos 1943 Rocket 4.1 21:40:59 10° NW 21:44:57 20° W 21:46:08 19° WSW
Cosmos 1943 4.2 21:42:19 16° SW 21:46:33 44° WNW 21:51:59 10° NNE
Cosmos 2218 Rocket 4.3 21:43:41 10° N 21:48:36 57° NNE 21:48:36 57° NNE
Resurs 01 Rocket 4.3 21:54:01 13° W 21:54:40 13° W 21:56:42 10° WNW
Cosmos 2181 Rocket 4.4 22:00:17 59° N 22:00:17 59° N 22:05:16 10° N
USA 234 4.3 21:53:45 10° NE 21:59:46 41° NNW 22:05:48 10° W
ATLAS 2AS CENTAUR R/B 2.8 21:54:45 10° NW 22:01:48 74° WNW 22:01:48 74° WNW
Cosmos 1980 Rocket 4.4 22:32:56 10° N 22:35:28 16° NNE 22:35:28 16° NNE
CZ-4C R/B 4.4 22:31:25 10° NNW 22:36:54 25° NNE 22:38:44 23° NE
